Location: Acton
(51.4942°N, 0.2232°W)
Time: 14:08:01
(UTC+00:00)

Okean 1-7 Rocket - Pass Details

Date: 17 January 2021
Orbit: 615 x 650 km, 82.5° (Epoch: 28 February)

Event Time Altitude Azimuth Distance (km) Brightness Sun altitude
Exits shadow 05:31:38 10° 354° (N) 2,098 6.1 -22.1°
Reaches altitude 10° 05:31:43 10° 354° (N) 2,065 6.1 -22.1°
Maximum altitude 05:36:18 68° 78° (ENE) 699 3.9 -21.4°
Drops below altitude 10° 05:40:48 10° 161° (SSE) 2,034 6.5 -20.7°
Sets 05:43:02 0° 164° (SSE) 2,934 7.3 -20.3°
